Meteo Giornale » Osservazioni meteo Francia » Villacoublay

ore: 21:00 - Osservazioni Meteo Villacoublay
Lat. 48° 46' N Lon. 2° 12' E Alt. 177 metri s.l.m.

sereno Europe/Paris

20 °C

Sereno

Temp. 24 Ore

13 °C

22 °C

Ovest/Sud-Ovest

9.3 Km/h

Dew point 11 °C

Umidità 56 %

Visibilità  10 Km

Il sole sorge alle ore 05:45

Il sole tramonta alle ore 21:58

Data e Ora Cielo e Fenomeni T °C DP °C Um. % Pres. hPa Vis. km Vento km/h
Oggi h: 21:00 sereno Sereno 20 11 56 1021 10 O/SO 9.3
Oggi h: 20:30 poco_nuvoloso Poco Nuvoloso 21 11 52 1021 10 SO 9.3
Oggi h: 20:00 molto_nuvoloso Molto Nuvoloso 21 11 52 1021 10 S/SO 9.3
Oggi h: 19:30 molto_nuvoloso Molto Nuvoloso 21 12 56 1021 10 S/SO 7.4
Oggi h: 19:00 nuvoloso Nuvoloso 20 11 56 1021 10 O 11.1
Oggi h: 18:30 nuvoloso Nuvoloso 21 11 52 1021 10 SO 13
Oggi h: 18:00 sereno Sereno 21 11 52 1021 10 SO 7.4
Oggi h: 17:30 molto_nuvoloso Molto Nuvoloso 21 11 52 1021 10 SO 14.8
Oggi h: 17:00 molto_nuvoloso Molto Nuvoloso 21 11 52 1021 10 O/SO 16.7
Oggi h: 16:30 molto_nuvoloso Molto Nuvoloso 22 12 53 1021 10 O/SO 16.7
Oggi h: 16:00 molto_nuvoloso Molto Nuvoloso 21 11 52 1021 10 O/SO 13
Oggi h: 15:30 molto_nuvoloso Molto Nuvoloso 21 11 52 1021 10 SO 16.7
Oggi h: 15:00 molto_nuvoloso Molto Nuvoloso 21 12 56 1022 10 O/SO 18.5
Oggi h: 14:30 molto_nuvoloso Molto Nuvoloso 20 12 59 1021 10 SO 18.5
Oggi h: 14:00 molto_nuvoloso Molto Nuvoloso 19 11 59 1022 10 SO 16.7
Oggi h: 13:30 molto_nuvoloso Molto Nuvoloso 20 12 59 1022 10 SO 13
Oggi h: 13:00 molto_nuvoloso Molto Nuvoloso 18 12 67 1022 10 O/SO 16.7
Oggi h: 12:30 coperto Coperto 18 11 63 1022 10 SO 16.7
Oggi h: 12:00 molto_nuvoloso Molto Nuvoloso 18 11 63 1022 10 SO 14.8
Oggi h: 11:30 molto_nuvoloso Molto Nuvoloso 18 12 67 1022 10 SO 13
Oggi h: 11:00 molto_nuvoloso Molto Nuvoloso 18 12 67 1022 10 S 14.8
Oggi h: 10:30 molto_nuvoloso Molto Nuvoloso 17 12 72 1022 10 S/SO 13
Oggi h: 10:00 molto_nuvoloso Molto Nuvoloso 16 12 77 1022 10 SO 13
Oggi h: 09:30 coperto Coperto 16 12 77 1022 10 O/SO 14.8
Oggi h: 09:00 molto_nuvoloso Molto Nuvoloso 15 12 82 1021 10 S/SO 9.3
Oggi h: 08:30 molto_nuvoloso Molto Nuvoloso 15 12 82 1021 10 O/SO 11.1
Oggi h: 08:00 molto_nuvoloso Molto Nuvoloso 14 12 87 1021 10 S/SO 7.4
Oggi h: 07:30 molto_nuvoloso Molto Nuvoloso 13 12 93 1021 10 S/SO 7.4
Oggi h: 07:00 coperto Coperto 13 11 87 1020 10 SO 9.3
Oggi h: 06:30 coperto Coperto 13 11 87 1020 10 SO 13
Oggi h: 06:00 coperto Coperto 13 11 87 1020 10 O/SO 11.1
Oggi h: 05:30 coperto Coperto 13 11 87 1020 10 SO 11.1
Oggi h: 05:00 coperto Coperto 13 11 87 1020 10 O/SO 9.3
Oggi h: 04:30 coperto Coperto 13 11 87 1020 10 O/SO 11.1
Oggi h: 04:00 sereno Sereno 13 11 87 1020 10 SO 7.4
Oggi h: 03:30 sereno Sereno 13 11 87 1020 10 SO 9.3
Oggi h: 03:00 sereno Sereno 13 11 87 1019 10 SO 9.3
Oggi h: 02:30 sereno Sereno 13 11 87 1019 10 SO 9.3
Oggi h: 02:00 sereno Sereno 13 11 87 1019 10 O/SO 13
Oggi h: 01:30 sereno Sereno 14 10 76 1019 10 SO 9.3
Oggi h: 01:00 sereno Sereno 14 10 76 1019 10 SO 9.3
Oggi h: 00:30 sereno Sereno 14 10 76 1019 10 O/SO 9.3
Oggi h: 00:00 sereno Sereno 15 10 72 1019 10 SO 9.3
Ieri h: 23:30 sereno Sereno 16 10 67 1019 10 SO 7.4
Ieri h: 23:00 sereno Sereno 16 10 67 1019 10 SO 7.4
Ieri h: 22:30 sereno Sereno 16 10 67 1018 10 S/SO 9.3
Ieri h: 22:00 sereno Sereno 17 9 59 1018 10 O/SO 13